[[{"header":{"parameterUnit":"m.s-1","parameterCategory":1,"la1":30.2992,"la2":30.254,"lo1":-89.0895,"lo2":-89.0443,"dy":0.0025,"dx":0.0025,"nx":19,"ny":19,"refTime":"2026-05-01T03:00:00:Z","depth":0,"parameterNumber":2,"parameterNumberName":"U-component_of_WINDS"},"data":[0,0,0,-0.5213,-0.5215,-0.5284,-0.5284,-0.5379,-0.538,0,0,0,0,0,0,0,0,0,0,0,-0.5195,-0.5196,-0.5213,-0.5215,-0.5284,-0.5284,-0.5379,-0.538,0,0,0,0,0,0,0,0,0,0,0,-0.5195,-0.5195,-0.5196,-0.5215,-0.5284,-0.5284,-0.5378,-0.5324,0,0,0,0,0,0,0,0,0,0,-0.5256,-0.5241,-0.5195,-0.5196,-0.5215,-0.5284,-0.5284,-0.5322,-0.5328,-0.5349,0,-0.5368,0,-0.5375,-0.5386,-0.5387,0,0,0,-0.5214,-0.5236,-0.5253,-0.5196,-0.5216,-0.5284,-0.5252,-0.5325,-0.5332,-0.5357,-0.537,-0.5373,-0.5377,-0.5387,-0.5387,-0.5514,-0.5514,0,0,-0.521,-0.5209,-0.5248,-0.5257,-0.5245,-0.525,-0.5255,-0.5329,-0.5343,-0.537,-0.5375,-0.5378,-0.5388,-0.5388,-0.5513,-0.5514,0,0,0,-0.52,-0.5207,-0.5221,-0.5253,-0.5265,-0.5252,-0.5257,-0.534,-0.5344,-0.5376,-0.538,-0.5388,-0.5389,-0.5512,-0.5513,-0.5545,0,0,0,-0.5197,-0.5201,-0.5219,-0.522,-0.5264,-0.5303,-0.5266,-0.5339,-0.5347,-0.5379,-0.5388,-0.539,-0.5512,-0.5513,-0.5543,-0.5561,0,0,0,-0.519,-0.52,-0.521,-0.522,-0.5249,-0.5302,-0.5311,-0.5341,-0.535,-0.5387,-0.5391,-0.5511,-0.5513,-0.5541,-0.5558,-0.5595,0,0,0,-0.5182,-0.5239,-0.5211,-0.5275,-0.5249,-0.532,-0.531,-0.5364,-0.5399,-0.5389,-0.5512,-0.5513,-0.554,-0.5556,-0.5593,-0.5628,-0.5641,0,0,-0.5253,-0.5247,-0.5285,-0.5262,-0.5338,-0.531,-0.5391,-0.5425,-0.5429,-0.5486,-0.5489,-0.5544,-0.5558,-0.5595,-0.5716,-0.5727,0,0,0,-0.5307,-0.5335,-0.5355,-0.5388,-0.5413,-0.5438,-0.5458,-0.547,-0.5518,-0.5458,-0.5566,-0.5575,-0.5596,-0.5613,-0.5623,-0.5642,-0.552,-0.552,-0.552,-0.5409,-0.541,-0.5473,-0.5482,-0.5514,-0.5534,-0.5561,-0.5581,-0.5574,-0.5599,-0.5617,-0.569,-0.571,-0.5717,-0.5737,-0.5634,-0.5634,-0.5634,-0.5634,-0.5515,-0.5555,-0.5541,-0.5598,-0.5599,-0.5647,-0.5668,-0.5661,-0.5707,-0.5677,-0.5697,-0.5667,-0.5729,-0.5747,-0.5636,-0.5636,-0.5636,-0.5635,-0.5635,-0.5584,-0.5603,-0.5615,-0.5662,-0.5698,-0.5705,-0.5749,-0.5748,-0.5748,-0.5767,-0.5786,-0.5786,-0.5786,-0.5776,-0.5776,-0.5776,-0.5776,-0.5776,-0.5777,-0.5651,-0.5664,-0.57,-0.5731,-0.5751,-0.5778,-0.5797,-0.5818,-0.5841,-0.5837,-0.5837,-0.5829,-0.5734,-0.5711,-0.5781,-0.578,-0.5779,-0.5779,-0.5779,-0.5762,-0.5736,-0.5792,-0.5813,-0.5848,-0.5884,-0.5881,-0.5923,-0.594,-0.5962,-0.5948,-0.5877,-0.5872,-0.5864,-0.5846,-0.5946,-0.5946,-0.5946,-0.5946,-0.5821,-0.5817,-0.5874,-0.5907,-0.5938,-0.5941,-0.6006,-0.6021,-0.6033,-0.6043,-0.6028,-0.6002,-0.5994,-0.5994,-0.5984,-0.5966,-0.6095,-0.6095,-0.6095,-0.589,-0.5888,-0.5944,-0.5953,-0.598,-0.6004,-0.6065,-0.6104,-0.6112,-0.6102,-0.6052,-0.6046,-0.6004,-0.599,-0.5982,-0.5966,-0.5934,0,0]},{"header":{"parameterUnit":"m.s-1","parameterCategory":1,"la1":30.2992,"la2":30.254,"lo1":-89.0895,"lo2":-89.0443,"dy":0.0025,"dx":0.0025,"nx":19,"ny":19,"refTime":"2026-05-01T03:00:00:Z","depth":0,"parameterNumber":3,"parameterNumberName":"V-component_of_WINDS"},"data":[0,0,0,-6.9182,-6.9185,-6.9307,-6.9308,-6.9469,-6.947,0,0,0,0,0,0,0,0,0,0,0,-6.9151,-6.9152,-6.9182,-6.9185,-6.9307,-6.9308,-6.9468,-6.947,0,0,0,0,0,0,0,0,0,0,0,-6.915,-6.9152,-6.9154,-6.9186,-6.9307,-6.9308,-6.9468,-6.9374,0,0,0,0,0,0,0,0,0,0,-6.9254,-6.923,-6.9152,-6.9154,-6.9187,-6.9307,-6.9308,-6.9369,-6.938,-6.9416,0,-6.9452,0,-6.9464,-6.9482,-6.9482,0,0,0,-6.9181,-6.9222,-6.9251,-6.9154,-6.9188,-6.9307,-6.9251,-6.9375,-6.9387,-6.943,-6.9454,-6.946,-6.9467,-6.9483,-6.9483,-6.9716,-6.9717,0,0,-6.9174,-6.9175,-6.9243,-6.9259,-6.9243,-6.9247,-6.9255,-6.9382,-6.9407,-6.9455,-6.9463,-6.9469,-6.9484,-6.9485,-6.9715,-6.9716,0,0,0,-6.9158,-6.917,-6.9196,-6.9252,-6.9274,-6.9251,-6.926,-6.9401,-6.941,-6.9465,-6.9471,-6.9485,-6.9487,-6.9714,-6.9715,-6.9783,0,0,0,-6.9154,-6.9161,-6.9193,-6.9195,-6.9272,-6.934,-6.9276,-6.9401,-6.9415,-6.947,-6.9485,-6.9488,-6.9712,-6.9715,-6.9778,-6.9814,0,0,0,-6.9141,-6.9159,-6.9179,-6.9195,-6.9248,-6.9338,-6.9353,-6.9404,-6.9419,-6.9482,-6.9489,-6.9711,-6.9714,-6.9773,-6.9807,-6.9877,0,0,0,-6.9128,-6.9234,-6.918,-6.9301,-6.9247,-6.9379,-6.9352,-6.945,-6.9512,-6.9486,-6.9712,-6.9715,-6.9772,-6.9802,-6.9872,-6.9938,-6.9965,0,0,-6.9262,-6.925,-6.9321,-6.9277,-6.942,-6.936,-6.9512,-6.9566,-6.9569,-6.9666,-6.9672,-6.9779,-6.9806,-6.9876,-7.0114,-7.0135,0,0,0,-6.9364,-6.9416,-6.9453,-6.9514,-6.9561,-6.9603,-6.9635,-6.9655,-6.9739,-6.962,-6.9823,-6.9839,-6.988,-6.9911,-6.9929,-6.9965,-6.9729,-6.9729,-6.9729,-6.9554,-6.9557,-6.9676,-6.9693,-6.9752,-6.9786,-6.9834,-6.9867,-6.9848,-6.9896,-6.9925,-7.007,-7.0106,-7.012,-7.0157,-6.9959,-6.9959,-6.996,-6.996,-6.9752,-6.9826,-6.9804,-6.9911,-6.9913,-7.0002,-7.0038,-7.0023,-7.0106,-7.0047,-7.0083,-7.0021,-7.0144,-7.0177,-6.9965,-6.9964,-6.9963,-6.9963,-6.9962,-6.9878,-6.9914,-6.994,-7.003,-7.0099,-7.0112,-7.0195,-7.0191,-7.0189,-7.0225,-7.0256,-7.0255,-7.0255,-7.024,-7.024,-7.0241,-7.0241,-7.0242,-7.0242,-6.9999,-7.0025,-7.0096,-7.0158,-7.0198,-7.025,-7.0287,-7.0325,-7.0367,-7.0358,-7.0359,-7.0337,-7.0156,-7.0111,-7.025,-7.0248,-7.0247,-7.0247,-7.0246,-7.02,-7.0155,-7.0265,-7.0306,-7.0378,-7.0448,-7.0444,-7.0524,-7.0556,-7.0596,-7.0568,-7.0434,-7.042,-7.0406,-7.0369,-7.0566,-7.0566,-7.0566,-7.0566,-7.0307,-7.0301,-7.0414,-7.048,-7.0544,-7.0553,-7.0677,-7.0707,-7.0729,-7.0749,-7.072,-7.067,-7.0656,-7.0651,-7.0631,-7.0596,-7.0847,-7.0848,-7.0848,-7.0432,-7.0432,-7.0539,-7.0565,-7.0622,-7.067,-7.0787,-7.0863,-7.0878,-7.0859,-7.0765,-7.0753,-7.0673,-7.0646,-7.0625,-7.0594,-7.053,0,0]}]]